FENGYUN 1C DEB, 38783

Orbit data source: Space-Track

FENGYUN 1C DEB, 38783 is space debris in SSO originally from a launch on Mon, 10 May 1999 UTC launched from the Taiyaun Space Center, China (TSC). Fengyun 1C debris stems from the Chinese weather satellite Fengyun-1C, which was intentionally destroyed by a Chinese anti-satellite missile in 2007. This event dramatically increased the amount of space debris, with thousands of trackable fragments posing hazards to satellites and human spaceflight. The Fengyun 1C debris cloud has become a focal point in discussions about space sustainability and the need for international regulations to prevent the creation of new debris.

Loading next visibility...
Identifier
38783, 1999-025ETX
Orbit
SSO
Country
Flag of CNCN / PRC
Related business
Manufacturer
Unknown
Mission
Spacecraft
Bus & Motor
Unknown
Mass
Unknown
Launch date (UTC)
1999-05-10 (27 years ago)
Launch vehicle
Unknown
Launch site
Taiyaun Space Center, China (TSC)
Object type
Payload
Rocket body
Debris
Shape & HBR
Unknown shape, 0.1 m
Radar Cross Section
Small (<0.1 m²)

Expand to show TLE details & history
Last TLE update: 3 weeks ago

TLE from 3 weeks ago
0 FENGYUN 1C DEB
1 38783U 99025ETX 26231.50293578  .00007581  00000-0  10392-2 0  9995
2 38783  98.3324 313.4721 0208671  65.2669 297.0094 14.64758092835912
Epoch: 2026-08-19T12:04Z
TLE epoch observation values (Epoch: 2026-08-19T12:04:13.651Z)
Latitude
-0.00007°
Longitude
164.55976°
Altitude
616.434 km
Speed
7.585 km/s
True Right ascension
20h 53m 53s
True Declination
0° 00' 00"
Sunlit
Object was in full shadow at epoch
Visualization orbit readout
Latitude
Unknown
Longitude
Unknown
Altitude
Unknown
Speed
Unknown
Apparent Right ascension
Unknown
Apparent Declination
Unknown
Sunlit
N/A
Visualization observer readout
Local Sidereal Time
10:05:45
Azimuth
Unknown
Elevation
Unknown
Doppler factor
Unknown
Orbital elements
Apogee altitude
822.108 km
Perigee altitude
527.754 km
Semi-major axis
7,053.068 km
Eccentricity
0.02087
Inclination
98.3324°
RAAN
313.4721°
Arg. of periapsis
65.2669°
True anomaly
294.85399°
Mean anomaly
297.0094°
Eccentric anomaly
295.9342°
Mean motion
3.66417 °/min
Orbital period
98.25 mins
BSTAR
0.0010392
Loading maneuver chart data...
Computing Atmospheric mass density...

Documentation

Showing up to 5 results
|